Weather in Khilovo

Russia / Pskov Oblast     57°46′09″N   29°22′32″E
temp.,
°C
wind,
m/s
gust,
m/s
humid.,
%
clouds,
%
prec.,
mm/h
press.,
hPa
HPBL,
m
7 march, sun
sun700:00−1wsw81777100 0.8 9991296
03:000wsw81693100 1.3 9951272
06:00−2wnw61280100 3.8 9931476
09:00−5w5145690 3.8 9941840
12:00−3w7155774 0.2 9942353
15:00−3wnw7145687 0.4 9942139
18:00−4w61283100 0.3 9941149
21:00−5n3692100 1.4 996585
8 march, mon
mon800:00−8nnw378553 0.3 998248
03:00−9nw4118343 0.3 1001579
06:00−8nnw4985100 0.1 1003973
09:00−9nnw5982100 0.1 1007739
12:00−8nnw4775100 0.1 1009852
15:00−6nnw4773100 0.1 1012916
18:00−7nnw377495 0.0 1013830
21:00−10nnw388893 0.0 1016526
9 march, tue
tue900:00−11nnw269197 0.0 1017348
03:00−13nnw259368 0.0 1019248
06:00−14nnw249447 0.0 1019193
09:00−13nw118433 0.0 1021178
12:00−9w126386 0.0 1021476
15:00−7wsw125693 0.0 1021606
18:00−7s3769100 0.0 1018730
21:00−7s4990100 0.6 1018667
10 march, wed
wed1000:00−6s3795100 3.4 1017486
03:00−6ese4696100 7.1 1017277
06:00−9e51192100 1.8 1017493
09:00−10e51189100 1.9 1019487
12:00−8e51080100 0.0 1020676
15:00−6e587695 0.1 1020879
18:00−7e4883100 0.1 1020774
21:00−10e399098 0.1 1020463
11 march, thu
thu1100:00−12e389383 0.0 1019277
03:00−14ese279686 0.0 1018212
06:00−15ese379695 0.0 1017220
09:00−13se379398 0.1 1015273
12:00−9ese4787100 0.0 1012318
15:00−5se4987100 0.0 1008448
18:00−2se41186100 0.0 1005845
21:00−3sse51289100 0.1 1001788